OBJECT C, 61896

Orbit data source: Space-Track

You're viewing an Uncataloged Satellite

Recently launched and/or uncataloged satellites may have evolving metadata. Metadata may include but not limited to: Owner, Maufacturer, Bus, Motor, and Mission.

OBJECT C, 61896 is a satellite owned by CASC (CN) in SSO that was launched on Mon, 11 Nov 2024 UTC via a LIJIAN-1 launch vehicle from the Jiuquan Satellite Launch Center, China (JSC). Unknown objects in Earth's orbit typically refer to objects detected orbiting the Earth but have not yet been identified or cataloged. These objects could be anything from previously untracked satellites, spent rocket stages, debris from satellite collisions, or even natural meteoroids temporarily captured by Earth's gravity.

Loading next visibility...
OBJECT C details
Identifier
61896, 2024-205C
Orbit
SSO
Last TLE update5 hours ago
Origin
Flag of CNCASC (CN / PRC)
ManufacturerSECM?
MissionOperational spacecraft
Bus & MotorUnknown
Mass~100 kg wet, ~100 kg dry
Launch date (UTC)
2024-11-11 (1 week ago)
Launch vehicle
LIJIAN-1
Launch site
Jiuquan Satellite Launch Center, China (JSC)
Object typeUnknown
Shape & HBRUnknown
Radar Cross SectionMedium (>0.1 m² and <1 m²)

Expand to show TLE details & history

TLE from 5 hours ago
0 OBJECT C
1 61896U 24205C   24326.18945285  .00018857  00000-0  10204-2 0  9990
2 61896  97.4739  38.1925 0013282 245.1739 114.8112 15.14619924  1489
Epoch: 2024-11-21T04:32Z
Definitive object data (Epoch: 2024-11-21T04:32:48.726Z)
Latitude-0.00001°
Longitude-90.68528°
Altitude529.07 km
Speed7.596 km/s
True Right ascension02h 32m 46s
True Declination0° 00' 00"
Sunlit
Object was in full shadow at TLE epoch
Visualization TLE readout
Latitude32.32497°
Longitude-95.22037°
Altitude534.165 km
Speed7.594 km/s
Apparent Right ascension22h 54m 29s
Apparent Declination-3° 55' 59"
Sunlit
Object is in full shadow
Visualization observer readout
Local Sidereal Time06:29:50
Azimuth282.727° WNW
Elevation-20.686°
Doppler factor1
Orbital elements
Apogee altitude528.27 km
Perigee altitude509.948 km
Semi-major axis6,897.246 km
Eccentricity0.0013282
Inclination97.4739°
RAAN38.1925°
Arg. of periapsis245.1739°
True anomaly114.94926°
Mean anomaly114.8112°
Eccentric anomaly114.88024°
Mean motion3.78904 °/min
BSTAR0.0010204
Orbital period95.01 mins
Loading maneuver chart data...
Loading historical data...
Loading historical data...
Loading historical data...
Loading historical data...
Loading historical data...
Loading historical data...
Loading historical data...

OBJECT C Visibility forecast

Observer location: undefined°, undefined

Span
Click to sort rows by Start time (UTC) header in descending order
Start Az.
Max El. time (UTC)
Max El. Az.
Max El.
End time (UTC)
End Az.
6 mins2024-11-21 17:47:48.172Z15.668° NNE2024-11-21 17:50:48.172Z83.628° E44.324°2024-11-21 17:53:48.172Z187.665° SSW
5 mins2024-11-22 04:28:48.172Z123.104° SE2024-11-22 04:30:48.172Z75.495° E27.957°2024-11-22 04:33:48.172Z12.226° NNE
|